| time (UTC) | temp F | wind direction | speed MPH | gust MPH | rain 1hr in | rain 24hr in | rain mn in | humidity % | barometer mb |
| 20260509161832 | 80 | 310 | 5.0 | 9.0 | 0.00 | 0.00 | 0.00 | 65 | 988.5 |
| 20260509161612 | 79 | 345 | 5.0 | 11.0 | 0.00 | 0.00 | 0.00 | 66 | 988.5 |
| 20260509161400 | 79 | 280 | 5.0 | 10.0 | 0.00 | 0.00 | 0.00 | 65 | 988.5 |
| 20260509160333 | 79 | 290 | 5.0 | 11.0 | 0.00 | 0.00 | 0.00 | 66 | 988.5 |
| 20260509155831 | 79 | 308 | 5.0 | 9.0 | 0.00 | 0.00 | 0.00 | 65 | 988.5 |
| 20260509155328 | 79 | 263 | 4.0 | 9.0 | 0.00 | 0.00 | 0.00 | 68 | 988.5 |
| 20260509154823 | 78 | 296 | 5.0 | 10.0 | 0.00 | 0.00 | 0.00 | 67 | 988.5 |
| 20260509154320 | 78 | 280 | 4.0 | 10.0 | 0.00 | 0.00 | 0.00 | 68 | 988.5 |
| 20260509153820 | 78 | 281 | 5.0 | 10.0 | 0.00 | 0.00 | 0.00 | 69 | 988.4 |
| 20260509153553 | 78 | 284 | 5.0 | 10.0 | 0.00 | 0.00 | 0.00 | 70 | 988.2 |
| 20260509153354 | 78 | 258 | 6.0 | 10.0 | 0.00 | 0.00 | 0.00 | 68 | 988.4 |
| 20260509152820 | 78 | 298 | 5.0 | 10.0 | 0.00 | 0.00 | 0.00 | 68 | 988.3 |
| 20260509151818 | 77 | 254 | 4.0 | 9.0 | 0.00 | 0.00 | 0.00 | 68 | 988.4 |
| 20260509151317 | 77 | 257 | 5.0 | 9.0 | 0.00 | 0.00 | 0.00 | 70 | 988.4 |
| 20260509151249 | 77 | 292 | 5.0 | 9.0 | 0.00 | 0.00 | 0.00 | 70 | 988.4 |
| 20260509150643 | 76 | 291 | 6.0 | 10.0 | 0.00 | 0.00 | 0.00 | 73 | 988.4 |
| 20260509150513 | 76 | 303 | 5.0 | 10.0 | 0.00 | 0.00 | 0.00 | 73 | 988.3 |
| 20260509150326 | 77 | 316 | 5.0 | 10.0 | 0.00 | 0.00 | 0.00 | 70 | 988.4 |
| 20260509144819 | 76 | 297 | 4.0 | 10.0 | 0.00 | 0.00 | 0.00 | 73 | 988.4 |
| 20260509144314 | 76 | 293 | 4.0 | 8.0 | 0.00 | 0.00 | 0.00 | 74 | 988.4 |
| 20260509144156 | 76 | 355 | 5.0 | 9.0 | 0.00 | 0.00 | 0.00 | 73 | 988.2 |
| 20260509143936 | 76 | 287 | 5.0 | 8.0 | 0.00 | 0.00 | 0.00 | 74 | 988.3 |
| 20260509143341 | 76 | 324 | 5.0 | 8.0 | 0.00 | 0.00 | 0.00 | 73 | 988.2 |
| 20260509142814 | 76 | 307 | 5.0 | 9.0 | 0.00 | 0.00 | 0.00 | 73 | 988.4 |
| 20260509141800 | 75 | 321 | 5.0 | 8.0 | 0.00 | 0.00 | 0.00 | 77 | 988.3 |
| 20260509141301 | 75 | 284 | 4.0 | 9.0 | 0.00 | 0.00 | 0.00 | 78 | 988.3 |
| 20260509140800 | 75 | 315 | 4.0 | 9.0 | 0.00 | 0.00 | 0.00 | 77 | 988.4 |
| 20260509140259 | 74 | 310 | 5.0 | 8.0 | 0.00 | 0.00 | 0.00 | 80 | 988.4 |
| 20260509135749 | 73 | 294 | 6.0 | 10.0 | 0.00 | 0.00 | 0.00 | 80 | 988.3 |
| 20260509135358 | 72 | 265 | 5.0 | 10.0 | 0.00 | 0.00 | 0.00 | 81 | 988.3 |
| 20260509135253 | 73 | 290 | 6.0 | 10.0 | 0.00 | 0.00 | 0.00 | 81 | 988.3 |
| 20260509134246 | 72 | 280 | 4.0 | 8.0 | 0.00 | 0.00 | 0.00 | 83 | 988.1 |
| 20260509133747 | 71 | 294 | 5.0 | 8.0 | 0.00 | 0.00 | 0.00 | 83 | 988.1 |
| 20260509133246 | 71 | 267 | 4.0 | 8.0 | 0.00 | 0.00 | 0.00 | 84 | 988.1 |
| 20260509132741 | 70 | 250 | 5.0 | 9.0 | 0.00 | 0.00 | 0.00 | 83 | 988.1 |
| 20260509132244 | 70 | 291 | 5.0 | 9.0 | 0.00 | 0.00 | 0.00 | 84 | 988.1 |
| 20260509131742 | 70 | 296 | 5.0 | 9.0 | 0.00 | 0.00 | 0.00 | 84 | 988.0 |
| 20260509131239 | 70 | 289 | 5.0 | 7.0 | 0.00 | 0.00 | 0.00 | 83 | 988.1 |
| 20260509130737 | 69 | 257 | 4.0 | 9.0 | 0.00 | 0.00 | 0.00 | 84 | 988.2 |
| 20260509130238 | 69 | 261 | 4.0 | 9.0 | 0.00 | 0.00 | 0.00 | 84 | 988.1 |
| 20260509125743 | 69 | 296 | 4.0 | 7.0 | 0.00 | 0.00 | 0.00 | 85 | 988.1 |
| 20260509125239 | 68 | 300 | 3.0 | 7.0 | 0.00 | 0.00 | 0.00 | 86 | 988.1 |
| 20260509124740 | 68 | 286 | 3.0 | 7.0 | 0.00 | 0.00 | 0.00 | 87 | 988.1 |
| 20260509124251 | 67 | 287 | 3.0 | 7.0 | 0.00 | 0.00 | 0.00 | 89 | 987.9 |
| 20260509124239 | 68 | 269 | 3.0 | 7.0 | 0.00 | 0.00 | 0.00 | 87 | 987.9 |
| 20260509123240 | 67 | 268 | 3.0 | 7.0 | 0.00 | 0.00 | 0.00 | 89 | 988.0 |
| 20260509122740 | 67 | 261 | 3.0 | 7.0 | 0.00 | 0.00 | 0.00 | 90 | 988.0 |
| 20260509122236 | 67 | 269 | 3.0 | 7.0 | 0.00 | 0.00 | 0.00 | 90 | 987.8 |
| 20260509121737 | 67 | 271 | 4.0 | 7.0 | 0.00 | 0.00 | 0.00 | 90 | 987.8 |
| 20260509121234 | 67 | 259 | 4.0 | 7.0 | 0.00 | 0.00 | 0.00 | 91 | 988.0 |
| 20260509120735 | 67 | 288 | 4.0 | 7.0 | 0.00 | 0.00 | 0.00 | 91 | 987.8 |
| 20260509120231 | 67 | 257 | 4.0 | 7.0 | 0.00 | 0.00 | 0.00 | 91 | 987.9 |
| 20260509115742 | 67 | 261 | 3.0 | 7.0 | 0.00 | 0.00 | 0.00 | 91 | 987.8 |
| 20260509115248 | 67 | 261 | 3.0 | 6.0 | 0.00 | 0.00 | 0.00 | 91 | 987.7 |
| 20260509115226 | 67 | 257 | 3.0 | 5.0 | 0.00 | 0.00 | 0.00 | 91 | 987.7 |
| 20260509114226 | 67 | 267 | 3.0 | 6.0 | 0.00 | 0.00 | 0.00 | 91 | 987.6 |
| 20260509113723 | 67 | 284 | 4.0 | 6.0 | 0.00 | 0.03 | 0.00 | 91 | 987.5 |
| 20260509113229 | 67 | 252 | 3.0 | 6.0 | 0.00 | 0.04 | 0.00 | 91 | 987.4 |
| 20260509112721 | 67 | 283 | 3.0 | 6.0 | 0.00 | 0.08 | 0.00 | 91 | 987.3 |
| 20260509112229 | 67 | 266 | 3.0 | 5.0 | 0.00 | 0.09 | 0.00 | 91 | 987.4 |
| 20260509111726 | 67 | 238 | 3.0 | 7.0 | 0.00 | 0.13 | 0.00 | 91 | 987.4 |
| 20260509111223 | 67 | 220 | 4.0 | 7.0 | 0.00 | 0.15 | 0.00 | 91 | 987.4 |
| 20260509110716 | 67 | 232 | 3.0 | 6.0 | 0.00 | 0.15 | 0.00 | 91 | 987.3 |
| 20260509110220 | 67 | 273 | 2.0 | 4.0 | 0.00 | 0.15 | 0.00 | 91 | 986.8 |
| 20260509105712 | 67 | 283 | 3.0 | 5.0 | 0.00 | 0.15 | 0.00 | 91 | 986.6 |
| 20260509105212 | 67 | 330 | 4.0 | 7.0 | 0.00 | 0.15 | 0.00 | 91 | 986.4 |
| 20260509104711 | 67 | 355 | 4.0 | 8.0 | 0.00 | 0.15 | 0.00 | 91 | 986.3 |
| 20260509104206 | 67 | 313 | 3.0 | 8.0 | 0.00 | 0.15 | 0.00 | 91 | 986.4 |
| 20260509103717 | 67 | 331 | 2.0 | 4.0 | 0.00 | 0.15 | 0.00 | 91 | 986.4 |
| 20260509103705 | 67 | 333 | 2.0 | 5.0 | 0.00 | 0.15 | 0.00 | 91 | 986.4 |
| 20260509102707 | 67 | 321 | 2.0 | 4.0 | 0.00 | 0.15 | 0.00 | 91 | 986.5 |
| 20260509102205 | 67 | 325 | 2.0 | 4.0 | 0.00 | 0.15 | 0.00 | 91 | 986.6 |
| 20260509101704 | 67 | 304 | 2.0 | 3.0 | 0.00 | 0.15 | 0.00 | 91 | 986.6 |
| 20260509101203 | 67 | 303 | 2.0 | 3.0 | 0.00 | 0.15 | 0.00 | 91 | 986.6 |
| 20260509100658 | 67 | 321 | 1.0 | 3.0 | 0.00 | 0.15 | 0.00 | 91 | 986.5 |
| 20260509100201 | 67 | 334 | 1.0 | 4.0 | 0.00 | 0.15 | 0.00 | 91 | 986.2 |
| 20260509095658 | 67 | 336 | 2.0 | 4.0 | 0.00 | 0.15 | 0.00 | 91 | 985.9 |
| 20260509095156 | 67 | 331 | 2.0 | 4.0 | 0.00 | 0.21 | 0.00 | 91 | 985.8 |
| 20260509094652 | 67 | 313 | 2.0 | 4.0 | 0.00 | 0.23 | 0.00 | 90 | 985.7 |
| 20260509094150 | 67 | 321 | 3.0 | 5.0 | 0.00 | 0.24 | 0.00 | 90 | 985.7 |
| 20260509093640 | 68 | 5 | 4.0 | 7.0 | 0.00 | 0.24 | 0.00 | 90 | 985.6 |
| 20260509093138 | 68 | 5 | 5.0 | 7.0 | 0.00 | 0.24 | 0.00 | 90 | 985.3 |
| 20260509092728 | 68 | 53 | 5.0 | 11.0 | 0.00 | 0.24 | 0.00 | 89 | 985.1 |
| 20260509092648 | 68 | 31 | 5.0 | 11.0 | 0.00 | 0.24 | 0.00 | 90 | 985.3 |
| 20260509091631 | 68 | 23 | 5.0 | 11.0 | 0.00 | 0.24 | 0.00 | 89 | 985.2 |
| 20260509091136 | 68 | 46 | 7.0 | 11.0 | 0.00 | 0.24 | 0.00 | 89 | 985.2 |
| 20260509090636 | 68 | 30 | 7.0 | 11.0 | 0.00 | 0.24 | 0.00 | 89 | 985.3 |
| 20260509090531 | 68 | 28 | 10.0 | 16.0 | 0.00 | 0.24 | 0.00 | 88 | 985.2 |
| 20260509090147 | 68 | 53 | 8.0 | 13.0 | 0.00 | 0.24 | 0.00 | 88 | 985.1 |
| 20260509085633 | 68 | 27 | 9.0 | 15.0 | 0.00 | 0.24 | 0.00 | 88 | 985.1 |
| 20260509084714 | 69 | 39 | 10.0 | 18.0 | 0.00 | 0.24 | 0.00 | 88 | 985.1 |
| 20260509084639 | 69 | 18 | 11.0 | 18.0 | 0.00 | 0.24 | 0.00 | 88 | 985.3 |
| 20260509083631 | 69 | 10 | 10.0 | 14.0 | 0.00 | 0.24 | 0.00 | 87 | 985.2 |
| 20260509083123 | 69 | 306 | 9.0 | 14.0 | 0.00 | 0.24 | 0.00 | 86 | 985.1 |
| 20260509082624 | 71 | 306 | 9.0 | 14.0 | 0.00 | 0.24 | 0.00 | 81 | 985.0 |
| 20260509082120 | 71 | 314 | 8.0 | 14.0 | 0.00 | 0.24 | 0.00 | 79 | 984.9 |
| 20260509081621 | 70 | 317 | 6.0 | 13.0 | 0.00 | 0.24 | 0.00 | 79 | 984.7 |
| 20260509081117 | 70 | 301 | 6.0 | 16.0 | 0.00 | 0.24 | 0.00 | 82 | 984.8 |
| 20260509080616 | 70 | 277 | 9.0 | 20.0 | 0.00 | 0.24 | 0.00 | 84 | 984.7 |
| 20260509080113 | 70 | 288 | 8.0 | 20.0 | 0.00 | 0.24 | 0.00 | 85 | 984.9 |
| 20260509075611 | 70 | 194 | 6.0 | 11.0 | 0.00 | 0.24 | 0.00 | 85 | 983.9 |
| 20260509075156 | 70 | 154 | 7.0 | 18.0 | 0.00 | 0.24 | 0.00 | 85 | 984.2 |
| 20260509075125 | 70 | 186 | 5.0 | 11.0 | 0.00 | 0.24 | 0.00 | 85 | 983.9 |
| 20260509074107 | 71 | 178 | 10.0 | 23.0 | 0.00 | 0.24 | 0.00 | 84 | 984.3 |
| 20260509073609 | 71 | 182 | 10.0 | 23.0 | 0.00 | 0.24 | 0.00 | 84 | 984.2 |
| 20260509073106 | 70 | 200 | 10.0 | 19.0 | 0.00 | 0.24 | 0.00 | 85 | 984.3 |
| 20260509072600 | 70 | 182 | 11.0 | 19.0 | 0.00 | 0.24 | 0.00 | 86 | 984.6 |
| 20260509072209 | 70 | 201 | 11.0 | 17.0 | 0.00 | 0.24 | 0.00 | 87 | 985.5 |
| 20260509072122 | 70 | 207 | 11.0 | 19.0 | 0.00 | 0.24 | 0.00 | 86 | 985.0 |
| 20260509071604 | 70 | 165 | 11.0 | 18.0 | 0.00 | 0.24 | 0.00 | 87 | 985.3 |
| 20260509070600 | 70 | 188 | 11.0 | 17.0 | 0.00 | 0.24 | 0.00 | 87 | 985.6 |
| 20260509070323 | 69 | 187 | 10.0 | 17.0 | 0.00 | 0.24 | 0.00 | 87 | 986.0 |
| 20260509070119 | 69 | 218 | 10.0 | 16.0 | 0.00 | 0.24 | 0.00 | 87 | 985.6 |
| 20260509065049 | 69 | 225 | 9.0 | 17.0 | 0.00 | 0.24 | 0.00 | 87 | 986.1 |
| 20260509064549 | 69 | 192 | 9.0 | 16.0 | 0.00 | 0.24 | 0.00 | 88 | 986.3 |
| 20260509064049 | 69 | 215 | 9.0 | 15.0 | 0.00 | 0.24 | 0.00 | 88 | 986.3 |
| 20260509063557 | 69 | 194 | 9.0 | 14.0 | 0.00 | 0.24 | 0.00 | 88 | 986.3 |
| 20260509063053 | 68 | 202 | 9.0 | 14.0 | 0.00 | 0.24 | 0.00 | 88 | 986.5 |
| 20260509062544 | 68 | 211 | 8.0 | 14.0 | 0.00 | 0.24 | 0.00 | 88 | 986.7 |
| 20260509062050 | 68 | 198 | 8.0 | 14.0 | 0.00 | 0.24 | 0.00 | 88 | 987.1 |
| 20260509061543 | 68 | 185 | 8.0 | 13.0 | 0.00 | 0.24 | 0.00 | 89 | 987.3 |
| 20260509061338 | 67 | 209 | 3.0 | 7.0 | 0.00 | 0.24 | 0.00 | 89 | 987.6 |
| 20260509061315 | 67 | 238 | 6.0 | 10.0 | 0.00 | 0.24 | 0.00 | 89 | 988.0 |
| 20260509061112 | 68 | 218 | 7.0 | 13.0 | 0.00 | 0.24 | 0.00 | 89 | 987.7 |
| 20260509060544 | 67 | 208 | 5.0 | 10.0 | 0.00 | 0.24 | 0.00 | 89 | 987.5 |
| 20260509055613 | 67 | 194 | 6.0 | 10.0 | 0.00 | 0.24 | 0.00 | 89 | 987.5 |
| 20260509055215 | 67 | 205 | 4.0 | 8.0 | 0.00 | 0.24 | 0.00 | 90 | 987.4 |
| 20260509054051 | 67 | 203 | 2.0 | 4.0 | 0.00 | 0.24 | 0.00 | 88 | 987.7 |
| 20260509053543 | 67 | 165 | 2.0 | 4.0 | 0.00 | 0.24 | 0.00 | 88 | 987.4 |
| 20260509053037 | 67 | 190 | 2.0 | 4.0 | 0.00 | 0.24 | 0.00 | 88 | 987.6 |
| 20260509053019 | 67 | 178 | 2.0 | 4.0 | 0.00 | 0.24 | 0.00 | 88 | 987.4 |
| 20260509052034 | 67 | 207 | 2.0 | 4.0 | 0.00 | 0.24 | 0.00 | 88 | 987.5 |
| 20260509051532 | 67 | 196 | 2.0 | 4.0 | 0.00 | 0.24 | 0.00 | 87 | 987.7 |
| 20260509051033 | 68 | 202 | 3.0 | 6.0 | 0.00 | 0.24 | 0.00 | 86 | 987.7 |
| 20260509050541 | 68 | 198 | 3.0 | 6.0 | 0.00 | 0.24 | 0.00 | 86 | 987.6 |
| 20260509050033 | 68 | 153 | 3.0 | 6.0 | 0.00 | 0.24 | 0.00 | 86 | 987.6 |
| 20260509045533 | 69 | 190 | 3.0 | 5.0 | 0.00 | 0.24 | 0.24 | 85 | 987.9 |
| 20260509045032 | 69 | 196 | 2.0 | 4.0 | 0.00 | 0.24 | 0.24 | 85 | 988.1 |
| 20260509044533 | 69 | 249 | 2.0 | 6.0 | 0.00 | 0.24 | 0.24 | 85 | 988.8 |
| 20260509044034 | 68 | 218 | 4.0 | 10.0 | 0.00 | 0.24 | 0.24 | 86 | 989.0 |
| 20260509043524 | 68 | 320 | 7.0 | 13.0 | 0.00 | 0.24 | 0.24 | 87 | 989.3 |
| 20260509043020 | 67 | 313 | 10.0 | 13.0 | 0.00 | 0.24 | 0.24 | 88 | 989.1 |
| 20260509042521 | 67 | 306 | 1.0 | 5.0 | 0.00 | 0.24 | 0.24 | 90 | 989.2 |
| 20260509042442 | 66 | 306 | 1.0 | 5.0 | 0.00 | 0.24 | 0.24 | 86 | 989.1 |
| 20260509041510 | 66 | 302 | 0.0 | 5.0 | 0.00 | 0.24 | 0.24 | 86 | 987.9 |
| 20260509041010 | 67 | 127 | 0.0 | 2.0 | 0.00 | 0.24 | 0.24 | 88 | 987.5 |
| 20260509040511 | 67 | 127 | 1.0 | 4.0 | 0.00 | 0.24 | 0.24 | 89 | 987.4 |
| 20260509040010 | 67 | 30 | 3.0 | 5.0 | 0.00 | 0.24 | 0.24 | 87 | 987.4 |
| 20260509035512 | 67 | 28 | 2.0 | 5.0 | 0.00 | 0.24 | 0.24 | 85 | 987.6 |
| 20260509035011 | 69 | 87 | 0.0 | 2.0 | 0.00 | 0.24 | 0.24 | 85 | 987.3 |
| 20260509034512 | 69 | 155 | 1.0 | 5.0 | 0.00 | 0.24 | 0.24 | 84 | 986.9 |
| 20260509034010 | 69 | 155 | 3.0 | 5.0 | 0.00 | 0.24 | 0.24 | 84 | 986.8 |
| 20260509033511 | 69 | 152 | 3.0 | 7.0 | 0.00 | 0.24 | 0.24 | 84 | 986.7 |
| 20260509033008 | 69 | 153 | 4.0 | 8.0 | 0.00 | 0.24 | 0.24 | 84 | 986.6 |
| 20260509032509 | 69 | 152 | 4.0 | 8.0 | 0.00 | 0.24 | 0.24 | 83 | 986.7 |
| 20260509032144 | 70 | 134 | 5.0 | 10.0 | 0.00 | 0.24 | 0.24 | 83 | 986.5 |
| 20260509032038 | 69 | 148 | 5.0 | 10.0 | 0.00 | 0.24 | 0.24 | 83 | 986.5 |
| 20260509031001 | 70 | 121 | 5.0 | 10.0 | 0.00 | 0.24 | 0.24 | 83 | 986.6 |
| 20260509030502 | 70 | 144 | 5.0 | 10.0 | 0.00 | 0.24 | 0.24 | 82 | 986.5 |
| 20260509030002 | 70 | 119 | 5.0 | 8.0 | 0.00 | 0.24 | 0.24 | 82 | 986.7 |
| 20260509025502 | 70 | 114 | 5.0 | 9.0 | 0.00 | 0.24 | 0.24 | 82 | 987.1 |
| 20260509025003 | 70 | 123 | 5.0 | 9.0 | 0.00 | 0.24 | 0.24 | 82 | 987.1 |
| 20260509024503 | 70 | 89 | 3.0 | 7.0 | 0.00 | 0.24 | 0.24 | 83 | 987.3 |
| 20260509023959 | 69 | 34 | 3.0 | 5.0 | 0.00 | 0.24 | 0.24 | 84 | 987.4 |
| 20260509023915 | 69 | 31 | 4.0 | 7.0 | 0.00 | 0.24 | 0.24 | 85 | 987.4 |
| 20260509022947 | 69 | 30 | 5.0 | 8.0 | 0.00 | 0.24 | 0.24 | 85 | 987.3 |
| 20260509022450 | 68 | 24 | 4.0 | 8.0 | 0.00 | 0.24 | 0.24 | 85 | 987.1 |
| 20260509021945 | 69 | 28 | 4.0 | 5.0 | 0.00 | 0.24 | 0.24 | 84 | 986.8 |
| 20260509021452 | 69 | 42 | 4.0 | 7.0 | 0.00 | 0.24 | 0.24 | 82 | 986.3 |
| 20260509020946 | 70 | 84 | 4.0 | 9.0 | 0.00 | 0.24 | 0.24 | 82 | 985.8 |
| 20260509020445 | 70 | 132 | 5.0 | 11.0 | 0.00 | 0.24 | 0.24 | 81 | 985.4 |
| 20260509015948 | 70 | 140 | 6.0 | 11.0 | 0.00 | 0.24 | 0.24 | 82 | 985.0 |
| 20260509015622 | 70 | 136 | 5.0 | 10.0 | 0.00 | 0.24 | 0.24 | 81 | 984.7 |
| 20260509015505 | 70 | 144 | 6.0 | 11.0 | 0.00 | 0.24 | 0.24 | 82 | 984.7 |
| 20260509014439 | 70 | 148 | 5.0 | 10.0 | 0.00 | 0.24 | 0.24 | 81 | 984.9 |
| 20260509013948 | 71 | 162 | 5.0 | 10.0 | 0.00 | 0.24 | 0.24 | 80 | 985.2 |
| 20260509013442 | 71 | 129 | 6.0 | 12.0 | 0.00 | 0.24 | 0.24 | 79 | 985.1 |
| 20260509013251 | 71 | 133 | 5.0 | 12.0 | 0.00 | 0.24 | 0.24 | 79 | 985.1 |
| 20260509013056 | 71 | 150 | 5.0 | 8.0 | 0.00 | 0.24 | 0.24 | 79 | 985.0 |
| 20260509012055 | 72 | 200 | 3.0 | 8.0 | 0.00 | 0.24 | 0.24 | 78 | 985.3 |
| 20260509011957 | 71 | 160 | 4.0 | 8.0 | 0.00 | 0.24 | 0.24 | 78 | 985.1 |
| 20260509010940 | 72 | 167 | 3.0 | 10.0 | 0.00 | 0.24 | 0.24 | 77 | 985.4 |
| 20260509010434 | 72 | 163 | 4.0 | 10.0 | 0.00 | 0.24 | 0.24 | 76 | 985.4 |
| 20260509005941 | 73 | 156 | 4.0 | 10.0 | 0.00 | 0.24 | 0.24 | 76 | 985.5 |
| 20260509005438 | 73 | 173 | 3.0 | 8.0 | 0.00 | 0.24 | 0.24 | 75 | 985.6 |
| 20260509004932 | 73 | 185 | 4.0 | 8.0 | 0.00 | 0.24 | 0.24 | 75 | 985.7 |
| 20260509004427 | 73 | 184 | 4.0 | 9.0 | 0.00 | 0.24 | 0.24 | 74 | 985.5 |
| 20260509003935 | 74 | 153 | 4.0 | 9.0 | 0.00 | 0.24 | 0.24 | 75 | 985.6 |
| 20260509003423 | 74 | 145 | 4.0 | 8.0 | 0.00 | 0.24 | 0.24 | 74 | 985.6 |
| 20260509002922 | 74 | 178 | 4.0 | 10.0 | 0.00 | 0.24 | 0.24 | 73 | 985.5 |
| 20260509002423 | 74 | 184 | 4.0 | 10.0 | 0.00 | 0.24 | 0.24 | 73 | 985.4 |
| 20260509001918 | 74 | 160 | 4.0 | 10.0 | 0.00 | 0.24 | 0.24 | 73 | 985.3 |
| 20260509001417 | 74 | 147 | 5.0 | 10.0 | 0.00 | 0.24 | 0.24 | 73 | 985.2 |
| 20260509000922 | 74 | 146 | 6.0 | 11.0 | 0.00 | 0.24 | 0.24 | 73 | 985.0 |
| 20260509000418 | 75 | 132 | 6.0 | 12.0 | 0.00 | 0.24 | 0.24 | 71 | 985.0 |
| 20260508235923 | 75 | 146 | 5.0 | 12.0 | 0.00 | 0.24 | 0.24 | 71 | 984.9 |
| 20260508235414 | 75 | 217 | 6.0 | 15.0 | 0.00 | 0.24 | 0.24 | 71 | 984.9 |
| 20260508235013 | 75 | 133 | 8.0 | 14.0 | 0.00 | 0.24 | 0.24 | 70 | 984.8 |
| 20260508234931 | 75 | 129 | 8.0 | 15.0 | 0.00 | 0.24 | 0.24 | 70 | 984.9 |
| 20260508233917 | 75 | 154 | 10.0 | 15.0 | 0.00 | 0.24 | 0.24 | 70 | 984.9 |
| 20260508233508 | 76 | 165 | 8.0 | 12.0 | 0.00 | 0.24 | 0.24 | 68 | 985.2 |
| 20260508233421 | 75 | 132 | 9.0 | 15.0 | 0.00 | 0.24 | 0.24 | 69 | 985.1 |
| 20260508232955 | 76 | 136 | 6.0 | 15.0 | 0.00 | 0.24 | 0.24 | 68 | 985.2 |
| 20260508232426 | 76 | 178 | 6.0 | 11.0 | 0.00 | 0.24 | 0.24 | 69 | 985.2 |
| 20260508231413 | 76 | 172 | 8.0 | 15.0 | 0.00 | 0.24 | 0.24 | 69 | 985.3 |
| 20260508230904 | 76 | 157 | 9.0 | 15.0 | 0.00 | 0.24 | 0.24 | 69 | 985.3 |
| 20260508230729 | 76 | 147 | 7.0 | 12.0 | 0.00 | 0.24 | 0.24 | 70 | 985.6 |
| 20260508230459 | 76 | 132 | 8.0 | 14.0 | 0.00 | 0.24 | 0.24 | 68 | 985.3 |
| 20260508225357 | 76 | 117 | 8.0 | 13.0 | 0.00 | 0.24 | 0.24 | 69 | 985.4 |
| 20260508225324 | 77 | 140 | 8.0 | 13.0 | 0.00 | 0.24 | 0.24 | 68 | 985.6 |
| 20260508225031 | 76 | 138 | 8.0 | 15.0 | 0.00 | 0.24 | 0.24 | 68 | 985.4 |
| 20260508224452 | 76 | 150 | 8.0 | 15.0 | 0.00 | 0.24 | 0.24 | 69 | 985.4 |
| 20260508223919 | 76 | 163 | 8.0 | 14.0 | 0.00 | 0.24 | 0.24 | 68 | 985.6 |
| 20260508222855 | 77 | 127 | 8.0 | 13.0 | 0.00 | 0.24 | 0.24 | 68 | 985.7 |
| 20260508222557 | 77 | 130 | 5.0 | 12.0 | 0.00 | 0.24 | 0.24 | 67 | 985.7 |
| 20260508222420 | 78 | 134 | 6.0 | 11.0 | 0.00 | 0.24 | 0.24 | 69 | 985.6 |
| 20260508221353 | 77 | 138 | 6.0 | 12.0 | 0.00 | 0.24 | 0.24 | 68 | 985.7 |
| 20260508220856 | 77 | 155 | 7.0 | 12.0 | 0.00 | 0.24 | 0.24 | 67 | 985.6 |
| 20260508220357 | 77 | 165 | 6.0 | 12.0 | 0.00 | 0.24 | 0.24 | 69 | 985.7 |
| 20260508215851 | 77 | 159 | 6.0 | 12.0 | 0.00 | 0.24 | 0.24 | 69 | 985.7 |
| 20260508215352 | 78 | 150 | 6.0 | 13.0 | 0.00 | 0.24 | 0.24 | 69 | 985.7 |
| 20260508214847 | 78 | 192 | 6.0 | 13.0 | 0.00 | 0.24 | 0.24 | 66 | 985.7 |
| 20260508214347 | 77 | 159 | 6.0 | 13.0 | 0.00 | 0.24 | 0.24 | 66 | 985.7 |
| 20260508213848 | 77 | 158 | 6.0 | 13.0 | 0.00 | 0.24 | 0.24 | 67 | 985.7 |
| 20260508213345 | 77 | 151 | 6.0 | 11.0 | 0.00 | 0.24 | 0.24 | 67 | 985.7 |
| 20260508212843 | 77 | 124 | 7.0 | 11.0 | 0.00 | 0.24 | 0.24 | 66 | 986.0 |
| 20260508212340 | 77 | 207 | 8.0 | 13.0 | 0.00 | 0.24 | 0.24 | 66 | 985.9 |
| 20260508211844 | 77 | 132 | 7.0 | 15.0 | 0.00 | 0.24 | 0.24 | 69 | 985.9 |
| 20260508211339 | 77 | 155 | 7.0 | 15.0 | 0.00 | 0.24 | 0.24 | 65 | 985.9 |
| 20260508210841 | 77 | 133 | 7.0 | 14.0 | 0.00 | 0.24 | 0.24 | 65 | 986.0 |
| 20260508210341 | 76 | 163 | 8.0 | 14.0 | 0.00 | 0.24 | 0.24 | 65 | 985.8 |
| 20260508205839 | 76 | 196 | 7.0 | 14.0 | 0.00 | 0.24 | 0.24 | 67 | 985.8 |
| 20260508205337 | 76 | 176 | 8.0 | 16.0 | 0.00 | 0.24 | 0.24 | 67 | 986.1 |
| 20260508205017 | 77 | 136 | 8.0 | 16.0 | 0.00 | 0.24 | 0.24 | 66 | 986.6 |
| 20260508204855 | 77 | 148 | 8.0 | 16.0 | 0.00 | 0.24 | 0.24 | 65 | 986.3 |
| 20260508203837 | 76 | 154 | 8.0 | 16.0 | 0.00 | 0.24 | 0.24 | 65 | 986.7 |
| 20260508203340 | 76 | 113 | 10.0 | 25.0 | 0.00 | 0.24 | 0.24 | 65 | 991.9 |
| 20260508202833 | 76 | 144 | 10.0 | 25.0 | 0.00 | 0.24 | 0.24 | 65 | 986.8 |
| 20260508202337 | 78 | 196 | 8.0 | 17.0 | 0.00 | 0.24 | 0.24 | 67 | 986.8 |
| 20260508201833 | 77 | 146 | 6.0 | 15.0 | 0.00 | 0.24 | 0.24 | 66 | 986.8 |
| 20260508201331 | 77 | 200 | 6.0 | 13.0 | 0.00 | 0.24 | 0.24 | 66 | 987.1 |
| 20260508200830 | 77 | 140 | 7.0 | 14.0 | 0.00 | 0.24 | 0.24 | 65 | 987.4 |
| 20260508200330 | 77 | 207 | 7.0 | 14.0 | 0.00 | 0.24 | 0.24 | 68 | 987.4 |
| 20260508195827 | 77 | 159 | 6.0 | 13.0 | 0.00 | 0.24 | 0.24 | 65 | 987.3 |
| 20260508195330 | 77 | 152 | 6.0 | 11.0 | 0.00 | 0.24 | 0.24 | 63 | 987.4 |
| 20260508194829 | 78 | 138 | 5.0 | 11.0 | 0.00 | 0.24 | 0.24 | 64 | 987.6 |
| 20260508194325 | 76 | 194 | 4.0 | 10.0 | 0.00 | 0.24 | 0.24 | 67 | 987.6 |
| 20260508193824 | 75 | 147 | 5.0 | 9.0 | 0.00 | 0.24 | 0.24 | 67 | 987.8 |
| 20260508193340 | 75 | 190 | 6.0 | 13.0 | 0.00 | 0.24 | 0.24 | 69 | 987.8 |
| 20260508192822 | 75 | 200 | 6.0 | 13.0 | 0.00 | 0.24 | 0.24 | 68 | 987.9 |
| 20260508192322 | 75 | 138 | 7.0 | 11.0 | 0.00 | 0.24 | 0.24 | 68 | 987.8 |
| 20260508191823 | 76 | 134 | 7.0 | 11.0 | 0.00 | 0.24 | 0.24 | 65 | 987.9 |
| 20260508191322 | 76 | 139 | 6.0 | 11.0 | 0.00 | 0.24 | 0.24 | 65 | 987.9 |
| 20260508191147 | 76 | 146 | 7.0 | 13.0 | 0.00 | 0.24 | 0.24 | 66 | 988.0 |
| 20260508191137 | 76 | 136 | 6.0 | 12.0 | 0.00 | 0.24 | 0.24 | 68 | 988.0 |
| 20260508190925 | 78 | 185 | 6.0 | 13.0 | 0.00 | 0.24 | 0.24 | 64 | 987.9 |
| 20260508185322 | 75 | 189 | 7.0 | 14.0 | 0.00 | 0.24 | 0.24 | 65 | 988.0 |
| 20260508184825 | 76 | 182 | 7.0 | 14.0 | 0.00 | 0.24 | 0.24 | 65 | 988.1 |
| 20260508184441 | 76 | 193 | 6.0 | 12.0 | 0.00 | 0.24 | 0.24 | 64 | 988.4 |
| 20260508184332 | 76 | 208 | 7.0 | 14.0 | 0.00 | 0.24 | 0.24 | 64 | 988.3 |
| 20260508183325 | 76 | 194 | 6.0 | 12.0 | 0.00 | 0.24 | 0.24 | 67 | 988.3 |
| 20260508182828 | 75 | 140 | 6.0 | 11.0 | 0.00 | 0.24 | 0.24 | 66 | 988.3 |
| 20260508182324 | 75 | 150 | 5.0 | 11.0 | 0.00 | 0.24 | 0.24 | 68 | 988.2 |
| 20260508181822 | 75 | 151 | 5.0 | 12.0 | 0.00 | 0.24 | 0.24 | 68 | 988.3 |
| 20260508181316 | 75 | 215 | 6.0 | 12.0 | 0.00 | 0.24 | 0.24 | 67 | 988.6 |
| 20260508180820 | 75 | 138 | 6.0 | 11.0 | 0.00 | 0.24 | 0.24 | 69 | 988.7 |
| 20260508180327 | 74 | 117 | 6.0 | 12.0 | 0.00 | 0.24 | 0.24 | 71 | 988.7 |
| 20260508175811 | 74 | 159 | 5.0 | 12.0 | 0.00 | 0.24 | 0.24 | 68 | 988.9 |
| 20260508175315 | 74 | 210 | 5.0 | 10.0 | 0.00 | 0.24 | 0.24 | 69 | 989.0 |
| 20260508174812 | 74 | 206 | 4.0 | 9.0 | 0.00 | 0.24 | 0.24 | 73 | 989.1 |
| 20260508174313 | 73 | 196 | 4.0 | 9.0 | 0.00 | 0.24 | 0.24 | 70 | 989.2 |
| 20260508174135 | 73 | 148 | 4.0 | 10.0 | 0.00 | 0.24 | 0.24 | 71 | 989.3 |
| 20260508174114 | 72 | 105 | 4.0 | 8.0 | 0.00 | 0.24 | 0.24 | 68 | 989.3 |
| 20260508173919 | 73 | 181 | 5.0 | 10.0 | 0.00 | 0.24 | 0.24 | 69 | 989.3 |
| 20260508172612 | 71 | 197 | 5.0 | 11.0 | 0.00 | 0.24 | 0.24 | 71 | 989.7 |
| 20260508172551 | 72 | 200 | 5.0 | 8.0 | 0.00 | 0.24 | 0.24 | 73 | 989.5 |
| 20260508172415 | 72 | 147 | 4.0 | 8.0 | 0.00 | 0.24 | 0.24 | 70 | 989.4 |
| 20260508171329 | 71 | 140 | 5.0 | 11.0 | 0.00 | 0.24 | 0.24 | 72 | 989.6 |
| 20260508170320 | 71 | 146 | 6.0 | 11.0 | 0.00 | 0.24 | 0.24 | 70 | 989.7 |
| 20260508165808 | 71 | 143 | 6.0 | 12.0 | 0.00 | 0.24 | 0.24 | 70 | 989.7 |
| 20260508165300 | 70 | 127 | 6.0 | 12.0 | 0.00 | 0.24 | 0.24 | 71 | 989.8 |
| 20260508164808 | 70 | 147 | 6.0 | 10.0 | 0.00 | 0.24 | 0.24 | 72 | 989.9 |
| 20260508164257 | 70 | 120 | 6.0 | 10.0 | 0.00 | 0.24 | 0.24 | 71 | 990.0 |
| 20260508163759 | 70 | 138 | 6.0 | 12.0 | 0.00 | 0.24 | 0.24 | 70 | 990.1 |
| 20260508163319 | 70 | 138 | 6.0 | 12.0 | 0.00 | 0.24 | 0.24 | 69 | 990.0 |
| 20260508163015 | 69 | 180 | 6.0 | 10.0 | 0.00 | 0.24 | 0.24 | 69 | 990.4 |
| 20260508162958 | 69 | 121 | 6.0 | 10.0 | 0.00 | 0.24 | 0.24 | 69 | 990.4 |
| 20260508162835 | 69 | 172 | 6.0 | 12.0 | 0.00 | 0.24 | 0.24 | 69 | 990.2 |